Flag for Norway Weather past 2 weeks in Kirkenes, Norway

34 °F

Passing clouds.

Feels Like: 34 °F
Forecast: 33 / 38 °F
Wind: 2 mph from North

Location: Kirkenes Lufthavn

Current Time: Oct 7, 2015 at 1:24:53 AM

Latest Report: Oct 7, 2015 at 12:50 AM

Visibility: N/A

Pressure: 30.48 "Hg

Humidity: 87%

Dew point: 30 °F

Location of KirkenesLocation

Historic Weather in Kirkenes — Graph


Kirkenes temperature yesterday

Maximum temperature yesterday: 39 °F (at 12:20 PM)
Minimum temperature yesterday: 32 °F (at 6:20 AM)
Average temperature yesterday: 36 °F

Past Weeks' High & Low Weather Summary

High55 °F (Sep 24, 12:20 PM)100% (Sep 22, 7:20 AM)30.57 "Hg (Sep 22, 7:20 AM)
Low28 °F (Oct 4, 6:20 AM)54% (Sep 30, 11:50 AM)29.12 "Hg (Oct 2, 2:50 PM)
Average42 °F85%29.85 "Hg
* Reported Sep 22 12:20 AM — Oct 7 12:20 AM, Kirkenes, Weather by CustomWeather, © 2015

Note: Actual official high and low records may vary slightly from our data, if they occured in-between our weather recording intervals... More about our weather records


Kirkenes weather history for previous 24 hours

Time TempWeatherWind HumidityBarometerVisibility
12:20 AM
Wed, Oct 7
34 °FPassing clouds.2 mph87%30.48 "HgN/A
11:50 PM
Tue, Oct 6
34 °FPassing clouds.5 mph87%30.48 "HgN/A
11:20 PM34 °FPassing clouds.2 mph93%30.48 "HgN/A
10:50 PM34 °FSnow flurries. Partly cloudy.5 mph93%30.48 "HgN/A
10:20 PM34 °FPassing clouds.5 mph93%30.48 "HgN/A
9:50 PM36 °FPartly cloudy.2 mph81%30.48 "HgN/A
9:20 PM36 °FPassing clouds.2 mph70%30.45 "HgN/A
8:50 PM36 °FPassing clouds.5 mph75%30.45 "HgN/A
8:20 PM36 °FPassing clouds.2 mph81%30.45 "HgN/A
7:50 PM36 °FPassing clouds.3 mph81%30.45 "HgN/A
7:20 PM36 °FPartly cloudy.5 mph87%30.45 "HgN/A
6:50 PM36 °FPartly cloudy.6 mph87%30.45 "HgN/A
6:20 PM36 °FPassing clouds.7 mph87%30.45 "HgN/A
5:50 PM37 °FPassing clouds.6 mph75%30.45 "HgN/A
5:20 PM37 °FPassing clouds.7 mph75%30.42 "HgN/A
4:50 PM37 °FPassing clouds.7 mph75%30.42 "HgN/A
4:20 PM37 °FPassing clouds.7 mph75%30.42 "HgN/A
3:50 PM37 °FScattered clouds.7 mph75%30.42 "HgN/A
3:20 PM37 °FPassing clouds.7 mph81%30.42 "HgN/A
2:50 PM39 °FScattered showers. Scattered clouds.12 mph70%30.42 "HgN/A
2:20 PM37 °FScattered showers. Scattered clouds.12 mph75%30.42 "HgN/A
1:50 PM39 °FScattered showers. Scattered clouds.12 mph75%30.42 "HgN/A
1:20 PM39 °FScattered showers. Scattered clouds.13 mph70%30.42 "HgN/A
12:50 PM39 °FScattered clouds.13 mph75%30.39 "HgN/A
12:20 PM39 °FScattered clouds.12 mph70%30.39 "HgN/A
11:50 AM37 °FScattered clouds.9 mph81%30.39 "HgN/A
11:20 AM37 °FScattered clouds.10 mph75%30.39 "HgN/A
10:50 AM36 °FScattered showers. Broken clouds.10 mph87%30.39 "HgN/A
10:20 AM36 °FScattered showers. Broken clouds.9 mph81%30.39 "HgN/A
9:50 AM36 °FBroken clouds.9 mph81%30.36 "HgN/A
9:20 AM36 °FBroken clouds.7 mph81%30.36 "HgN/A
8:50 AM36 °FBroken clouds.10 mph81%30.36 "HgN/A
8:20 AM34 °FBroken clouds.9 mph87%30.36 "HgN/A
7:50 AM34 °FScattered clouds.8 mph87%30.33 "HgN/A
7:20 AM34 °FPartly sunny.6 mph87%30.33 "HgN/A
6:50 AM34 °FPartly sunny.9 mph87%30.33 "HgN/A
6:20 AM32 °FPassing clouds.8 mph93%30.33 "HgN/A
5:50 AM36 °FPassing clouds.10 mph81%30.33 "HgN/A
5:20 AM34 °FPassing clouds.12 mph87%30.30 "HgN/A
4:50 AM34 °FPassing clouds.10 mph93%30.30 "HgN/A
4:20 AM34 °FPassing clouds.7 mph87%30.30 "HgN/A
3:50 AM36 °FPartly cloudy.10 mph87%30.30 "HgN/A
3:20 AM36 °FMostly cloudy.9 mph87%30.30 "HgN/A
2:50 AM36 °FLow clouds.10 mph87%30.30 "HgN/A
2:20 AM34 °FLight rain. Partly cloudy.8 mph93%30.30 "HgN/A
1:50 AM34 °FOvercast.7 mph93%30.27 "HgN/A
1:20 AM34 °FPassing clouds.7 mph93%30.27 "HgN/A
Weather by CustomWeather, © 2015

See weather overviewHow to use our weather pages